Theta_e
350 352 352 353 354 354 354 355 355 355 354 354 354 353 354 355 353 354 357 357 359 359 361 362 363 363 362 365 364 365 368 367 367 368 368 368 367 367 366 369 367 365 366 365 363 365 365 363 363 363 365 361 359 359 359 362 365 363 362 360 357 359 357 356 353 354 360 363 359 359 362 364 360 368 364 363 366 369 366 370 373 369 371 373 370
350 351 353 353 353 353 353 354 354 354 353 353 353 353 353 353 355 355 354 356 358 357 359 359 362 362 361 364 366 366 369 369 366 367 367 366 366 364 366 368 367 366 366 365 365 365 366 365 364 365 367 364 361 359 357 356 360 358 361 359 358 360 360 357 357 355 355 362 363 365 363 366 360 369 366 364 364 368 367 368 364 365 369 373 370
349 352 352 353 353 353 353 353 353 353 352 352 351 351 351 353 354 354 351 352 357 357 358 357 362 364 363 364 368 367 369 368 367 366 366 367 366 364 363 365 365 364 364 365 364 366 364 365 363 364 365 364 364 360 360 361 360 360 361 362 362 360 363 361 359 356 356 358 364 360 362 366 364 365 368 366 369 371 370 366 362 362 368 371 369
348 351 351 351 352 353 353 353 351 351 350 351 351 351 351 351 353 352 352 352 353 357 358 358 362 364 362 365 367 367 368 367 367 367 367 367 366 366 366 366 365 364 363 363 362 364 363 363 362 362 364 364 365 364 363 362 363 365 364 366 366 363 365 366 364 360 359 357 362 362 363 364 364 367 367 368 367 368 367 367 367 365 364 366 368
348 349 349 349 350 351 351 351 351 350 350 350 350 350 351 350 351 351 351 350 352 356 359 360 361 363 359 361 364 366 366 366 367 365 366 367 366 365 366 367 366 365 364 364 363 364 363 362 361 364 365 363 363 363 363 364 364 363 362 365 365 364 365 365 365 365 361 359 360 366 368 367 368 368 369 364 365 368 371 369 364 365 367 365 364
348 349 349 348 350 350 352 351 350 350 350 350 350 350 351 351 351 350 350 350 352 353 357 358 359 361 361 361 363 366 367 367 368 367 365 366 366 365 366 366 365 366 365 364 364 364 363 364 363 364 363 362 361 362 365 365 366 363 363 365 365 365 366 366 366 365 363 362 363 361 366 362 363 366 368 367 363 362 364 367 368 370 369 364 362
349 348 349 348 350 350 351 351 351 350 351 350 351 351 350 350 350 350 350 350 350 350 353 356 359 359 361 361 360 363 365 365 367 368 366 366 366 366 363 364 364 365 365 364 363 363 363 363 364 364 364 364 362 362 365 366 364 365 366 366 366 366 364 365 366 364 364 362 362 363 362 365 365 361 367 370 367 366 362 361 362 368 369 368 366
348 349 349 349 351 352 352 353 352 353 353 354 353 351 350 351 352 352 352 350 349 349 350 352 356 357 359 359 361 362 365 364 367 368 367 366 365 365 364 363 362 363 363 364 363 363 363 363 362 364 364 365 365 364 365 364 366 365 365 367 367 365 363 362 363 362 361 361 359 357 359 361 363 366 368 368 366 366 366 361 358 361 363 367 368
348 348 349 350 352 355 355 354 354 354 354 355 354 353 352 352 352 352 353 351 349 349 349 350 353 355 357 359 359 360 360 362 363 365 366 366 365 363 364 363 362 362 362 361 362 362 363 363 363 362 366 365 363 362 362 363 364 363 366 368 367 364 364 363 362 362 361 360 359 362 361 360 361 363 361 362 361 359 364 364 362 364 364 362 366
349 347 348 351 355 356 356 356 355 356 355 355 355 354 353 353 351 352 352 352 352 352 352 351 350 352 355 358 359 358 359 360 357 347 350 364 365 361 363 364 363 361 362 361 360 361 361 362 361 365 362 362 359 353 347 349 352 359 364 368 366 365 363 363 362 362 361 359 357 358 356 355 354 360 361 361 364 367 364 365 362 363 364 362 365
350 349 349 352 355 356 357 356 356 356 356 355 356 355 354 353 353 353 352 352 353 355 353 351 350 349 350 352 355 356 357 357 344 336 337 341 358 363 362 364 364 363 361 362 361 359 360 362 363 364 365 360 360 350 346 342 344 344 346 355 364 366 364 362 361 362 360 358 358 359 356 357 357 359 360 359 361 363 363 364 362 362 360 356 354
349 351 352 355 356 356 355 356 356 356 356 356 356 356 355 354 354 354 353 352 354 354 353 352 352 351 349 350 350 352 355 346 334 332 333 333 341 360 360 360 360 361 360 359 360 360 360 361 362 361 364 366 366 365 355 346 341 341 340 342 346 352 353 362 363 362 363 360 359 358 358 358 360 363 360 358 362 363 366 365 363 361 359 357 357
352 352 353 353 356 356 357 357 357 356 357 357 358 358 357 355 354 354 352 353 353 353 353 352 353 353 351 351 349 350 352 340 331 330 330 330 331 345 356 359 357 358 358 359 359 361 362 362 361 362 360 365 364 365 369 367 346 338 339 341 342 341 338 339 345 363 364 364 361 359 361 362 362 363 363 364 368 363 363 362 364 363 361 359 359
355 353 353 355 355 357 358 357 356 357 358 358 358 357 356 356 354 354 353 354 354 353 352 353 353 355 353 353 353 352 352 341 329 327 327 327 328 335 356 355 358 357 358 359 358 360 362 362 362 362 363 364 366 365 366 368 369 366 360 359 360 357 343 336 335 337 349 360 363 362 366 368 364 366 369 371 366 362 363 360 364 361 362 361 364
348 355 355 355 355 356 357 357 357 358 358 358 358 357 356 357 355 354 353 353 354 354 352 352 352 354 353 353 353 353 352 336 326 324 323 323 325 329 354 353 354 357 358 359 362 361 363 362 363 362 365 366 366 365 366 366 368 367 367 365 364 365 366 362 359 358 358 358 361 364 367 369 370 371 371 372 371 369 367 366 365 365 364 365 363
340 343 348 356 354 356 355 356 357 358 358 358 357 357 357 358 357 356 355 354 355 354 355 353 353 352 352 352 351 351 353 332 325 323 322 322 323 343 353 355 354 355 358 361 361 363 363 363 363 363 363 365 358 344 353 366 366 366 365 365 365 365 365 361 349 351 363 363 364 363 363 364 353 370 371 368 370 372 370 367 365 362 359 356 354
335 338 339 341 347 356 354 354 356 356 357 356 356 356 357 358 358 358 356 354 353 353 354 353 355 353 352 352 351 352 353 338 323 320 320 320 325 348 353 356 356 356 357 361 362 362 362 363 364 362 363 365 352 334 335 348 363 363 363 363 363 362 362 365 345 337 337 334 334 335 335 334 333 330 329 330 353 359 363 358 355 358 357 353 354
330 333 335 336 339 345 356 357 357 356 357 356 356 356 356 357 357 358 356 354 352 353 355 355 355 355 353 352 352 352 352 342 321 318 317 318 330 350 354 355 356 358 358 360 361 361 362 359 363 364 363 363 342 331 330 345 360 361 362 361 361 360 362 363 361 358 332 329 330 331 331 332 331 330 331 330 328 340 358 353 357 357 355 356 353
327 328 330 334 336 340 348 358 359 356 356 356 355 356 356 357 357 358 356 356 355 356 356 355 355 356 354 353 349 350 352 345 322 318 316 316 329 352 354 355 355 356 357 358 360 361 363 360 358 356 359 354 336 330 327 342 360 361 362 361 359 359 360 362 362 362 362 359 358 356 352 342 347 352 354 338 334 341 354 357 359 357 355 354 355
328 330 331 332 333 336 341 349 359 359 358 358 358 358 359 358 358 357 357 356 356 356 356 356 355 355 356 355 354 352 352 354 349 317 315 314 318 349 355 353 353 354 357 356 358 361 361 363 357 336 333 333 330 325 323 326 356 362 362 360 359 358 362 362 364 363 365 364 364 364 363 365 364 363 363 362 354 350 353 358 360 360 359 358 357
329 330 330 331 332 333 336 340 347 359 362 360 360 360 360 359 358 358 357 357 357 357 357 357 356 356 356 357 356 355 355 354 355 318 314 313 315 326 354 354 354 354 356 356 356 356 359 360 360 342 327 326 325 322 319 318 332 360 362 361 361 361 357 362 362 363 364 365 364 362 362 364 364 364 363 365 362 358 354 356 359 361 360 358 355
328 329 329 330 332 333 335 337 340 345 358 362 362 362 363 362 361 361 360 360 359 359 360 358 357 357 358 358 358 357 356 346 356 326 315 313 313 315 345 355 354 355 354 356 356 355 356 358 361 346 326 324 322 320 316 317 319 353 360 336 335 333 359 362 362 363 363 362 360 359 360 360 359 360 360 361 361 364 362 361 359 360 362 362 360
326 327 329 330 331 332 334 336 337 339 343 356 362 362 364 363 364 364 363 361 361 360 360 359 358 357 358 358 359 359 360 357 334 349 318 313 311 312 320 339 334 357 354 354 355 355 357 359 359 345 325 319 318 318 317 316 319 339 330 328 327 328 341 357 359 359 360 359 359 359 358 360 360 359 360 361 362 366 365 365 364 363 363 364 365
326 327 328 329 331 332 334 335 337 338 340 344 351 353 359 361 362 363 363 361 359 358 359 359 358 357 356 357 359 359 362 361 343 331 337 313 312 310 312 318 328 349 354 353 355 356 357 359 355 332 320 314 314 316 317 317 333 322 319 323 326 331 350 355 354 357 357 356 356 356 357 359 360 360 360 364 363 368 368 367 367 367 367 366 368
326 327 327 328 329 330 332 334 337 340 342 344 344 349 354 358 359 362 363 361 360 359 358 359 359 358 357 356 357 360 360 361 362 345 327 321 313 311 312 314 317 322 347 353 355 356 342 332 330 324 320 316 315 316 317 317 316 320 319 320 329 348 351 353 355 357 355 354 354 356 357 360 362 363 367 369 370 369 369 369 369 369 369 369 368
327 327 327 327 328 330 331 332 334 339 343 345 346 348 350 355 356 360 361 360 360 359 358 358 358 359 358 358 358 360 361 362 362 363 340 331 321 313 313 313 316 318 328 346 336 333 330 325 324 323 323 326 337 342 345 345 322 318 320 325 342 347 351 353 355 354 354 355 356 356 359 362 363 367 370 370 367 365 365 364 364 363 365 362 361
327 328 326 325 327 329 331 331 333 335 340 347 348 348 351 354 354 356 358 358 359 359 359 358 357 357 357 357 358 359 361 360 361 362 362 355 348 337 323 324 315 316 327 339 337 345 344 340 344 333 334 332 333 336 338 340 342 335 335 337 343 347 350 353 354 356 356 357 357 359 362 363 367 367 366 365 363 364 366 362 360 361 362 361 359
326 325 325 325 326 327 329 330 330 331 334 339 341 345 350 350 353 354 357 359 358 358 359 358 357 357 357 358 358 358 359 360 361 362 361 360 356 352 343 337 336 334 335 340 346 349 351 340 339 348 350 351 349 349 350 353 352 350 348 346 346 347 349 349 352 358 360 361 361 362 362 365 363 364 363 363 362 364 365 359 359 358 358 359 356
323 325 325 326 326 328 328 327 327 327 330 334 340 342 344 347 348 350 356 360 362 360 359 360 360 361 361 361 359 358 360 360 362 341 361 338 353 358 352 345 344 343 334 327 346 349 352 352 352 351 352 350 350 352 352 353 353 354 355 354 353 353 353 353 353 354 357 358 357 359 360 363 362 362 360 360 360 359 361 361 363 359 360 357 353
322 323 325 325 325 325 325 325 325 327 328 330 333 337 338 325 335 349 350 340 331 324 322 352 363 364 362 363 365 361 361 364 340 326 322 320 319 324 328 326 324 336 329 320 336 348 349 350 351 351 352 351 351 351 352 353 354 354 356 344 353 354 354 354 355 356 359 357 359 359 359 360 360 361 360 358 359 359 358 350 360 360 356 353 351
320 321 323 324 323 323 323 323 324 326 327 328 330 330 333 338 318 314 320 328 323 316 314 313 315 324 354 363 360 335 333 332 330 319 314 315 314 313 314 314 313 315 316 332 338 343 347 348 348 350 350 352 352 352 352 353 353 355 355 356 355 353 351 354 355 354 355 355 356 358 358 359 359 360 357 357 357 358 359 357 356 358 356 354 351
318 319 319 321 322 323 323 323 324 324 324 325 325 326 329 331 335 323 319 318 314 309 307 307 309 312 315 329 348 365 335 318 318 312 311 312 312 310 310 310 310 310 310 318 342 343 345 348 349 350 351 350 351 351 353 354 355 355 355 355 355 355 355 354 354 357 357 356 357 355 357 358 359 360 357 355 353 356 357 356 354 353 353 353 352
318 318 319 320 322 323 324 322 322 322 321 322 322 324 325 327 329 332 336 321 317 314 312 309 306 306 309 309 309 318 327 330 313 311 309 308 307 308 308 308 308 306 308 330 344 346 347 348 349 352 352 351 353 353 354 354 355 356 356 356 355 357 357 359 357 358 357 358 358 357 357 357 357 356 353 354 356 355 356 355 354 353 352 350 348
317 317 319 320 321 320 320 320 319 319 320 321 321 322 324 325 326 329 331 335 339 331 319 310 304 304 304 304 308 309 308 308 308 307 308 308 306 305 306 317 303 301 317 343 345 347 350 350 350 351 353 353 354 354 354 356 356 357 358 358 359 360 361 363 361 357 355 355 356 355 355 356 354 355 355 355 355 355 355 353 354 351 350 348 346
316 319 321 322 320 319 318 318 318 318 319 320 320 321 322 323 325 326 329 331 333 335 339 345 327 304 320 317 308 305 306 306 307 306 304 305 306 303 308 332 331 327 325 338 347 349 350 351 351 351 353 354 354 354 355 357 357 357 358 359 360 361 362 361 359 359 356 356 355 354 355 355 355 355 354 354 353 354 354 353 352 350 349 348 345
316 316 317 318 317 317 316 317 317 317 318 319 320 321 323 324 325 326 326 329 331 334 338 341 346 334 315 305 308 308 306 304 304 304 305 305 302 306 335 339 341 340 336 338 342 347 350 353 353 353 354 354 356 355 356 356 358 359 359 359 357 359 359 360 358 358 358 357 354 353 348 355 355 355 355 355 354 353 353 351 352 350 349 347 345
315 315 316 316 316 315 315 316 317 318 318 318 319 320 322 324 326 326 327 329 332 336 339 341 344 345 339 344 322 306 303 306 303 303 303 305 300 322 343 346 347 348 343 343 343 345 349 351 353 355 355 354 355 356 357 358 359 360 350 359 360 359 359 359 360 358 358 356 356 355 355 355 355 355 354 353 351 352 353 353 351 348 344 339 332
314 315 315 315 315 314 314 315 317 317 318 319 321 321 321 321 322 323 324 327 329 333 337 340 337 341 342 346 349 349 329 305 301 302 302 302 310 329 340 346 350 350 351 349 346 347 348 352 354 354 355 355 355 357 357 359 359 359 359 360 360 360 344 355 353 360 360 358 357 356 354 355 355 355 351 351 351 351 351 351 350 346 339 333 333
314 314 313 313 313 313 314 315 316 317 318 318 318 319 319 319 319 320 322 324 326 329 333 338 342 343 343 347 352 341 330 335 335 337 329 327 329 335 341 346 349 351 353 354 351 348 350 351 352 355 355 355 355 357 358 357 359 359 360 359 358 358 357 356 358 358 355 355 355 356 356 355 355 355 355 353 351 352 352 351 349 345 340 334 333
312 312 312 312 313 313 315 316 316 317 317 317 316 316 317 317 316 317 319 321 322 325 327 330 334 339 343 346 347 349 347 347 347 347 345 336 334 336 340 344 348 351 353 355 356 354 351 352 353 354 355 356 357 357 359 359 359 359 360 358 357 357 358 359 358 357 355 356 356 356 355 355 356 356 356 354 352 352 352 352 344 341 342 338 335
311 311 313 311 311 312 314 315 315 315 315 315 314 314 314 316 316 317 318 318 319 321 323 325 329 333 336 338 325 328 345 345 347 349 350 349 342 339 340 343 345 348 350 353 356 358 356 354 354 355 356 356 357 357 357 357 356 357 357 357 357 355 358 359 359 357 356 356 356 355 355 355 354 354 352 352 341 345 351 350 342 339 338 336 336
310 310 310 311 311 312 312 313 313 314 313 313 312 312 313 314 314 315 316 316 317 318 319 322 325 329 325 316 312 310 337 345 346 345 347 348 349 348 344 343 346 347 349 351 354 357 358 358 356 356 355 355 355 355 354 355 356 356 357 357 356 356 355 357 358 357 357 356 356 356 356 355 353 352 352 339 352 348 349 346 342 340 339 336 335
310 310 310 311 311 311 311 311 311 310 310 311 311 313 313 313 313 314 314 314 315 316 317 318 321 326 328 320 322 314 333 343 341 345 346 346 348 348 350 351 350 349 349 351 353 355 357 358 357 356 354 354 356 355 354 355 355 356 355 355 356 355 356 357 357 356 356 356 356 354 354 354 352 352 351 348 349 348 346 341 339 338 336 338 337
309 309 310 310 310 310 310 309 309 310 310 310 311 311 311 312 312 312 312 312 313 314 315 316 317 319 321 324 324 329 336 339 342 344 345 345 347 347 349 351 353 353 353 352 353 354 355 354 354 355 355 355 355 356 356 356 356 359 357 350 345 346 350 352 354 355 354 354 354 353 354 352 351 350 347 345 348 346 343 339 338 337 337 338 337
307 307 308 308 308 309 308 309 308 308 308 308 308 308 310 309 309 310 310 310 311 311 311 312 313 314 315 316 318 321 329 337 339 339 342 344 345 348 350 352 353 353 353 353 353 354 353 351 351 352 351 353 354 355 356 358 355 348 345 345 346 345 347 350 353 354 354 353 353 352 351 350 349 348 347 347 345 345 341 338 338 333 334 336 335
306 306 307 307 307 308 307 307 308 306 306 306 305 306 307 308 308 308 308 308 308 308 308 308 309 310 310 311 312 312 312 313 317 318 318 314 310 310 311 315 317 321 322 323 324 326 329 333 339 344 346 348 349 349 347 345 343 344 346 347 347 348 350 352 353 353 353 353 352 351 350 348 349 347 345 346 344 343 341 338 337 337 337 335 334
304 305 306 306 306 306 306 306 305 305 305 305 305 305 305 306 306 307 307 306 306 306 306 305 306 306 306 307 306 306 307 306 306 307 306 306 307 306 307 308 308 308 308 308 309 310 311 313 316 319 322 324 326 329 329 332 334 336 336 334 337 342 345 347 350 352 352 351 350 349 349 346 346 345 342 342 341 340 338 337 335 334 335 335 333
304 305 305 305 305 305 304 304 303 304 303 303 304 304 305 305 304 305 305 304 304 303 302 303 303 303 304 304 304 304 304 303 303 303 303 303 303 304 304 305 304 305 305 305 305 306 306 306 307 308 311 314 316 316 317 320 321 321 321 323 330 338 336 325 344 345 347 347 348 347 347 345 344 343 342 341 339 337 336 335 333 332 332 332 331
303 304 303 304 304 303 303 302 303 301 302 302 302 302 303 303 303 303 303 303 302 302 301 301 301 302 302 302 302 301 301 302 301 300 300 301 301 302 302 302 302 303 303 302 302 303 304 305 305 305 306 307 309 310 311 313 314 316 315 316 315 304 303 311 325 333 325 338 342 343 344 343 342 339 336 336 336 336 335 334 331 328 328 328 327
302 303 302 302 302 302 303 303 302 301 302 302 301 301 302 302 302 302 302 301 301 301 300 300 300 300 300 300 300 300 299 299 299 298 298 299 299 300 300 300 300 300 300 299 300 301 302 303 303 303 304 304 305 306 306 307 309 310 313 312 299 296 301 305 311 313 324 335 337 339 336 333 331 331 332 333 333 332 330 327 325 324 325 327 327
302 301 302 301 301 302 301 301 300 300 300 301 300 300 300 300 300 300 301 300 300 299 299 299 299 299 299 299 300 299 298 298 298 298 297 297 297 297 298 297 298 297 297 298 298 298 299 300 302 302 303 303 303 303 302 303 303 303 297 295 295 296 298 303 315 304 310 315 327 327 326 324 323 323 324 325 325 323 320 320 321 322 323 324 323
Wind_Speed
15 14 13 14 14 15 14 13 13 12 12 12 11 11 10 10 10 10 8 8 8 8 8 8 8 8 8 8 8 8 8 8 7 7 7 7 7 7 6 6 6 5 5 6 6 5 6 6 6 6 5 5 5 5 4 4 3 3 3 3 3 3 3 3 4 5 3 2 4 5 4 5 5 4 6 6 6 6 6 6 5 5 3 3 4
15 14 13 13 15 14 15 13 13 12 14 13 13 11 11 10 9 8 10 9 9 9 10 9 8 9 9 9 8 8 8 9 9 8 8 8 8 6 7 7 7 6 6 6 6 5 6 6 6 6 5 6 5 6 5 5 4 4 4 4 3 3 4 4 4 5 6 3 4 4 4 2 5 3 5 7 7 6 7 7 5 5 4 2 5
16 14 14 14 15 15 14 13 13 14 15 13 14 14 12 11 9 10 11 10 9 10 10 10 9 9 9 8 8 8 8 9 9 9 8 9 9 8 7 8 8 8 7 7 8 7 7 7 7 6 5 5 6 6 5 5 5 4 4 3 4 4 4 4 4 5 7 6 4 5 4 4 4 5 5 4 4 4 6 6 6 5 3 3 4
15 14 14 15 15 14 14 13 15 15 15 14 15 15 12 11 10 11 11 10 10 10 10 10 10 9 10 9 9 9 9 9 9 9 10 9 9 9 9 8 8 8 9 8 8 7 8 7 7 7 6 6 6 5 5 5 5 4 5 4 4 4 3 4 5 5 5 7 5 5 5 5 4 4 4 4 4 4 4 5 4 5 5 4 2
14 14 16 16 16 15 16 15 15 16 16 14 16 15 14 12 10 12 12 12 12 10 10 10 10 10 10 11 10 10 10 9 9 10 9 9 10 10 9 9 9 9 9 9 8 8 8 9 8 7 6 7 6 6 6 6 5 5 5 4 4 4 3 4 4 4 5 7 7 5 5 5 4 4 3 4 4 4 3 3 4 4 4 4 4
13 14 15 16 15 17 15 16 16 17 17 16 16 15 14 13 12 11 12 13 12 11 11 10 10 11 11 11 10 10 9 9 10 10 10 10 9 9 9 9 9 9 10 10 9 9 9 9 9 8 8 8 7 7 6 7 6 6 6 5 4 4 5 5 4 5 5 6 6 7 5 6 5 4 3 3 5 6 4 2 2 1 3 4 3
13 13 15 16 14 16 16 16 15 16 15 15 13 13 14 14 13 13 12 13 12 12 11 12 10 11 11 11 11 11 10 10 9 10 10 10 10 10 10 10 10 9 10 10 10 10 10 9 9 9 9 9 9 8 7 7 6 7 6 6 5 5 5 5 5 5 6 6 6 6 6 4 4 6 2 3 4 4 4 4 3 1 2 3 3
12 12 14 14 14 15 15 15 15 14 14 13 13 14 13 13 12 11 11 12 13 13 13 12 11 11 11 11 11 10 10 10 10 10 10 11 10 11 11 10 10 10 10 10 10 10 10 10 10 10 10 9 9 8 8 7 6 7 6 6 5 5 6 5 5 5 6 6 6 7 6 6 5 5 4 4 4 3 3 2 5 5 3 3 4
13 14 14 14 14 13 13 13 13 13 13 12 13 13 13 12 11 11 11 11 11 12 12 12 11 11 11 11 11 10 10 11 10 10 11 12 11 11 11 11 11 10 10 10 10 10 10 10 10 11 10 10 10 8 8 6 6 7 6 6 6 6 6 6 5 5 6 6 7 6 6 5 5 5 5 4 4 5 3 3 5 5 4 4 3
13 13 14 14 12 12 12 11 11 12 13 13 13 14 13 13 13 13 13 12 12 11 11 11 12 12 11 11 11 10 10 9 11 15 13 10 11 10 10 10 11 11 10 10 10 11 11 10 10 12 11 11 11 12 12 11 10 9 7 6 7 6 6 6 6 6 6 6 7 6 6 6 6 5 5 5 5 4 4 4 5 4 4 5 4
13 15 14 13 11 11 11 12 11 12 13 13 12 14 14 13 12 13 13 13 13 11 11 13 13 12 13 12 12 11 10 10 15 16 16 16 12 11 10 10 10 11 11 10 10 11 10 10 10 10 11 11 12 14 13 14 13 14 13 10 8 7 7 7 7 7 6 7 6 6 7 7 8 7 6 6 5 5 5 5 5 5 5 5 6
11 13 13 10 10 11 12 12 12 13 13 13 13 13 13 13 12 13 12 13 12 12 13 14 13 13 12 13 14 13 12 14 15 16 17 18 15 12 11 10 10 11 11 11 10 10 11 10 9 8 9 10 10 10 13 15 15 15 15 14 12 12 11 9 8 7 8 7 7 8 7 8 7 6 7 6 5 5 5 5 5 5 6 7 6
8 10 11 11 11 11 11 12 13 13 13 13 12 12 13 13 13 13 14 14 12 13 14 14 14 14 13 14 15 15 14 15 16 17 18 18 18 15 11 11 11 11 11 12 12 10 9 9 9 8 8 11 10 10 9 10 15 17 15 14 13 14 14 15 13 11 8 8 9 9 9 7 8 8 7 6 5 6 6 6 5 5 6 6 7
7 9 9 11 10 10 11 12 13 13 12 12 12 13 13 14 15 14 13 12 13 13 15 15 13 13 14 14 13 14 14 14 18 19 18 18 18 15 13 13 12 12 12 12 11 12 11 10 9 10 10 9 9 10 10 10 9 9 9 9 10 12 15 16 16 16 13 11 10 11 10 8 9 8 7 6 7 7 6 7 6 7 6 7 8
11 9 7 10 9 11 11 12 13 12 12 12 12 13 14 13 14 13 13 13 13 14 14 15 14 14 15 15 14 14 14 16 17 19 19 19 18 15 12 13 13 12 12 13 12 12 12 11 11 11 10 10 9 11 11 10 9 8 9 9 10 10 10 11 12 11 11 12 12 13 12 10 10 10 9 8 9 8 7 8 8 7 7 7 7
11 11 12 7 9 10 10 12 12 12 12 12 13 13 13 13 13 13 12 12 12 12 13 13 14 15 15 16 15 16 15 16 17 18 19 18 17 10 11 13 14 13 12 13 12 12 12 12 12 12 12 12 12 14 13 10 9 10 10 10 10 10 10 11 12 11 11 10 11 12 12 11 9 9 8 7 7 7 6 6 7 7 7 7 7
11 11 11 11 12 9 12 12 11 12 12 12 13 14 13 13 13 11 12 13 12 13 13 14 13 14 16 15 16 15 15 15 17 18 18 18 13 10 10 11 12 13 13 12 12 13 13 13 13 12 12 12 13 15 15 12 11 11 10 10 10 9 10 8 13 16 15 14 14 14 14 13 13 13 13 11 8 6 7 9 10 7 7 8 7
11 12 11 12 12 12 12 11 12 11 12 13 13 13 13 12 12 11 13 13 14 14 13 13 14 14 16 16 16 15 16 14 17 18 18 18 16 11 10 11 12 12 12 13 12 12 13 16 15 14 13 13 14 15 15 13 12 12 11 11 11 11 10 9 7 9 17 16 16 16 16 15 14 15 15 13 10 6 9 10 9 7 9 8 8
10 10 12 11 11 12 11 12 13 13 13 14 13 13 13 12 12 11 13 13 13 12 12 12 13 13 15 16 16 17 16 15 16 18 19 19 16 11 11 11 12 12 12 12 12 11 12 13 17 16 14 14 15 14 15 14 12 12 12 11 12 12 11 9 9 9 7 8 9 10 10 13 12 10 12 16 13 12 11 12 10 9 9 9 8
10 10 9 9 9 10 11 12 12 13 14 13 13 13 12 12 13 13 13 12 12 13 13 13 14 13 13 15 14 16 17 15 13 19 19 20 21 13 11 12 13 14 13 12 11 12 13 11 13 19 20 17 15 14 15 17 14 12 11 12 12 14 10 10 10 9 9 8 8 9 10 9 9 9 10 10 10 12 12 12 11 9 9 9 9
10 10 10 9 10 10 10 10 13 13 14 13 13 13 12 13 13 13 13 13 13 12 14 13 13 14 13 14 14 15 14 15 14 19 20 21 22 19 11 14 14 13 12 12 12 13 12 12 12 15 20 20 19 17 16 17 17 13 13 13 13 12 9 10 9 10 10 9 9 9 9 9 9 9 9 8 8 9 10 11 11 10 10 10 10
10 11 11 10 10 10 10 10 10 11 12 13 13 13 12 13 12 13 12 12 13 14 13 13 13 13 13 14 14 15 14 16 14 16 21 22 22 25 15 14 15 13 13 12 13 13 13 12 12 13 18 20 20 19 18 16 19 12 15 16 16 13 12 10 9 8 9 9 9 9 9 9 9 9 10 9 9 9 9 9 10 11 11 11 10
9 11 11 10 10 9 10 11 10 9 12 13 13 13 13 13 14 12 13 14 14 14 14 13 13 13 12 12 12 13 14 12 18 14 19 22 23 23 24 18 16 14 14 14 15 14 12 13 12 13 16 18 19 20 18 18 14 14 19 18 16 17 11 9 9 9 9 10 11 10 10 10 9 10 10 10 9 9 9 9 9 10 10 10 10
9 10 10 10 9 8 8 9 10 9 10 12 13 11 12 13 13 13 14 14 15 15 15 15 15 16 17 16 14 13 12 12 13 19 16 22 21 23 23 23 19 14 15 15 14 13 13 13 11 13 16 17 19 18 17 16 13 19 20 19 18 13 7 9 9 9 10 10 12 13 13 11 10 10 10 9 9 8 9 10 10 10 9 8 9
8 8 10 12 12 11 10 9 9 9 7 7 9 12 13 12 13 13 14 15 15 15 15 14 14 15 15 16 15 15 14 12 11 14 20 19 22 22 23 24 23 21 17 16 14 14 13 14 13 14 16 17 18 17 14 16 21 19 18 18 15 8 9 10 10 10 11 12 13 12 12 11 10 10 9 8 8 8 8 8 7 7 7 7 7
9 9 10 11 11 12 13 12 9 10 10 4 4 8 13 12 10 10 11 14 14 15 14 14 15 14 14 15 15 14 14 12 12 10 12 16 16 20 23 23 24 24 22 18 18 18 15 13 15 16 15 14 10 8 8 11 17 19 17 14 9 10 10 10 10 11 12 11 11 11 11 10 9 9 9 8 8 8 9 10 9 9 8 9 9
9 9 10 11 11 10 12 10 10 9 10 7 4 5 11 13 12 11 10 12 13 12 13 14 15 15 15 15 15 14 14 15 13 11 9 9 10 11 13 14 20 20 15 14 15 12 13 13 11 13 12 14 15 13 13 12 11 9 8 9 10 11 11 11 12 11 11 11 11 11 10 9 8 7 7 7 8 8 8 9 11 10 9 10 9
7 8 11 12 11 10 10 14 13 8 10 10 9 8 8 10 12 11 12 11 12 13 14 15 16 16 15 15 14 14 15 14 13 12 12 10 11 11 11 11 11 11 12 12 13 14 14 13 13 10 8 7 8 7 9 9 10 10 9 10 11 11 13 14 12 11 11 11 10 10 9 8 8 9 8 9 8 8 8 10 10 10 9 9 10
10 7 8 10 10 11 10 10 10 10 9 9 9 9 10 11 12 13 13 9 8 10 12 14 14 15 14 13 12 13 13 13 14 12 13 14 14 12 11 11 10 10 15 16 11 8 9 11 11 11 10 11 10 10 10 10 11 12 12 11 10 10 10 10 12 13 13 11 12 13 11 9 10 9 9 9 9 11 10 9 9 10 9 10 12
10 8 6 7 9 11 11 10 10 10 10 10 10 11 13 16 16 14 12 12 15 18 13 12 14 12 13 14 14 13 13 12 10 14 16 15 15 15 14 14 16 14 16 18 12 9 11 12 13 13 12 12 13 13 13 12 11 12 12 12 11 11 11 11 12 11 11 11 11 11 10 10 10 9 11 12 10 11 9 9 10 10 10 10 12
9 9 8 5 7 9 9 10 11 10 10 10 10 12 13 13 16 19 18 15 15 17 19 21 21 19 15 14 13 15 16 9 6 12 15 17 16 16 16 16 16 18 10 10 9 12 12 13 13 13 13 13 13 13 13 12 12 12 12 11 12 13 12 12 11 11 11 11 12 11 11 10 11 10 11 13 12 12 10 8 10 10 11 11 12
8 9 9 8 7 6 8 9 10 10 10 9 10 11 12 13 15 14 14 14 14 15 17 19 19 19 21 19 15 15 13 14 13 12 15 16 17 17 18 18 17 16 16 18 10 12 13 12 12 12 13 14 14 13 13 13 12 12 12 12 12 12 13 13 12 11 12 12 12 11 11 11 11 10 12 13 12 12 11 9 10 11 12 11 12
9 9 9 9 7 8 8 9 10 9 10 11 11 11 12 12 13 15 14 10 13 16 17 16 16 18 19 20 20 19 16 7 13 15 14 16 16 17 18 19 18 15 13 10 12 11 11 12 12 11 12 13 13 12 13 14 13 13 13 13 13 12 12 13 12 12 12 12 11 11 11 11 11 10 10 11 12 14 12 11 11 11 11 11 11
8 8 8 9 8 6 6 8 9 10 10 10 10 11 11 12 13 14 13 14 15 13 11 12 14 15 16 18 18 18 18 17 12 12 15 15 15 15 14 7 5 10 15 13 12 12 12 11 12 12 12 12 12 12 12 12 12 12 12 12 12 11 11 10 11 12 11 11 11 11 11 13 13 12 14 14 14 13 12 10 11 12 11 11 11
8 10 13 10 7 6 6 6 8 9 10 10 10 11 11 11 12 12 12 12 12 12 13 12 6 9 12 12 16 19 19 17 16 13 11 12 8 8 11 6 5 4 7 10 11 11 12 12 12 12 12 12 12 12 12 12 11 11 12 11 11 11 10 10 11 11 12 12 12 14 15 14 14 14 13 14 14 12 11 11 13 12 11 9 8
8 7 8 9 8 6 6 6 7 9 11 11 11 11 11 11 12 11 11 11 12 13 13 11 10 11 12 14 16 15 14 12 12 14 14 9 11 16 9 8 8 9 11 12 13 14 14 14 13 13 12 12 12 12 12 12 12 12 12 12 12 12 12 12 11 11 12 12 13 14 13 14 14 14 14 13 14 13 13 13 13 12 11 10 9
7 7 7 7 7 8 7 7 7 9 12 12 11 10 10 10 10 10 10 10 11 12 12 12 11 12 11 8 9 12 12 10 13 15 16 15 17 14 11 11 11 11 11 12 12 13 13 13 13 12 12 12 12 12 12 12 12 12 12 12 12 12 13 12 11 11 11 12 12 13 14 15 14 14 14 14 13 14 13 11 11 9 9 10 10
8 7 8 8 9 10 9 7 8 13 10 9 9 9 10 9 10 11 11 11 12 12 12 10 9 11 12 11 1 2 3 5 6 4 4 6 8 10 11 12 12 12 11 11 11 12 12 12 12 13 13 12 12 12 12 12 11 12 12 12 12 12 14 12 12 11 12 11 12 12 14 15 14 13 12 13 14 13 13 10 10 9 9 11 10
7 9 10 13 12 9 8 9 9 9 10 10 9 9 9 9 10 10 10 11 11 11 11 11 11 11 11 8 8 2 5 2 4 5 6 8 9 11 12 13 14 14 15 14 11 11 13 13 13 12 11 11 12 12 12 12 11 12 11 11 12 12 13 13 13 13 15 15 15 14 15 15 14 13 13 13 14 14 12 11 11 10 9 9 11
8 7 9 12 9 9 10 10 9 9 10 10 10 9 9 9 9 9 10 11 11 11 11 11 12 12 11 9 8 5 7 8 8 8 7 8 9 10 11 11 12 13 13 14 14 12 13 13 12 11 12 12 12 12 11 11 11 10 10 11 12 13 13 12 12 13 14 15 15 15 15 15 14 12 12 13 12 12 11 8 9 9 11 11 12
7 8 9 9 9 9 9 10 8 8 8 9 9 9 9 9 9 10 10 11 11 11 11 12 12 12 11 10 6 6 9 8 8 7 7 7 7 9 10 11 11 12 12 12 12 12 11 12 12 12 12 12 12 11 11 11 12 11 12 12 12 13 12 12 12 12 12 14 15 15 14 14 14 13 13 13 10 10 8 7 10 11 10 11 11
8 8 9 8 8 7 8 9 9 10 9 8 8 8 9 9 9 9 10 10 11 11 12 12 12 12 12 15 15 13 10 11 10 10 9 9 8 8 7 9 10 10 11 11 11 11 11 10 10 11 12 12 12 11 11 12 12 13 13 14 15 14 14 13 11 12 13 15 15 15 15 13 13 13 12 7 10 12 10 9 10 11 11 10 9
9 9 9 8 8 7 8 8 9 9 9 9 9 10 11 11 10 9 9 10 10 10 11 11 11 12 12 13 13 14 10 11 13 13 12 11 10 10 10 10 10 10 10 10 11 12 11 12 12 11 12 12 13 12 12 13 12 12 14 12 9 9 13 13 12 12 13 15 15 15 14 13 9 10 12 10 11 10 10 9 9 11 12 11 9
8 9 9 8 8 7 7 7 7 8 8 10 11 10 9 10 10 9 9 9 9 9 10 10 10 10 10 11 11 9 8 10 12 13 13 12 12 12 11 10 11 12 12 11 11 11 14 15 14 10 10 11 12 12 11 10 10 8 3 1 2 9 13 17 15 12 11 13 13 13 12 12 10 12 12 12 11 12 10 10 11 12 13 14 14
7 8 8 7 7 7 7 7 7 7 8 8 7 7 7 8 9 9 9 8 8 9 9 9 10 9 9 8 7 8 8 7 9 10 10 12 13 12 11 11 12 12 10 9 8 8 12 13 12 9 8 9 9 9 9 8 4 5 6 11 14 15 14 15 13 9 8 13 12 11 12 12 11 13 13 12 12 11 10 11 13 12 11 11 11
7 8 8 8 7 7 7 6 7 7 7 7 7 7 7 7 8 9 9 9 8 8 8 8 8 9 8 8 8 8 7 7 7 7 7 8 8 7 7 8 8 9 8 8 8 7 6 4 4 7 9 9 8 7 6 5 5 7 11 12 12 12 11 10 9 8 9 12 13 12 12 12 13 13 12 12 11 11 11 12 12 11 12 12 12
7 7 8 7 7 7 7 7 7 7 7 7 7 7 7 8 8 9 9 9 8 7 7 7 7 8 8 8 8 7 6 6 7 7 7 8 8 8 8 8 7 7 8 8 8 8 8 7 6 6 6 5 4 4 2 2 5 8 9 7 7 9 8 7 8 8 10 11 11 12 10 10 12 11 10 10 9 9 9 10 10 12 11 11 10
7 7 7 7 7 6 6 6 7 8 7 7 7 8 8 8 8 8 8 9 8 8 7 7 8 8 8 8 7 7 6 6 6 7 7 7 8 8 8 9 9 9 8 9 9 7 7 7 7 7 6 5 4 1 1 2 1 2 3 3 4 7 8 7 7 7 6 7 7 7 6 11 10 11 10 9 9 8 9 9 8 7 9 9 7
7 7 7 7 6 6 6 6 7 7 7 7 8 8 8 8 8 8 8 8 8 8 7 8 8 8 8 7 7 7 7 7 7 7 7 7 8 8 9 10 11 10 9 9 10 10 10 9 9 8 7 6 5 3 1 1 3 5 5 5 7 10 10 11 7 7 9 8 8 10 8 9 8 7 7 7 8 8 8 6 6 6 6 7 9
6 7 6 6 6 5 5 5 6 6 6 7 7 7 8 8 7 7 8 8 7 8 8 7 7 7 7 7 7 7 8 7 7 7 8 8 8 8 9 10 11 11 10 9 9 9 8 9 9 10 9 8 7 6 5 4 3 3 3 3 5 11 14 16 15 17 13 9 10 8 8 9 8 8 8 9 8 7 7 7 7 7 8 9 8
6 6 6 6 5 5 5 5 5 5 6 6 7 7 7 7 7 7 7 7 7 7 7 7 7 7 7 7 7 7 7 7 7 8 8 8 8 9 10 10 11 10 9 9 9 10 9 9 9 10 10 11 9 8 7 8 7 6 6 2 0 2 4 6 8 10 11 9 8 10 11 11 11 10 9 8 8 8 8 8 7 6 5 5 6
Wind_Direction
191 191 189 194 192 191 194 196 200 202 206 204 205 207 204 202 201 205 189 200 197 200 206 211 212 214 219 213 210 201 195 195 199 202 209 216 222 225 222 203 212 225 229 230 227 220 222 229 232 229 225 232 231 229 225 206 200 212 207 214 229 205 221 239 282 297 290 239 283 301 321 320 332 339 338 344 350 352 335 350 344 360 357 354 81
192 189 191 192 195 196 200 198 199 199 203 204 207 209 208 203 200 191 198 200 195 204 205 210 213 215 218 215 209 204 194 193 198 201 207 213 217 215 217 208 208 219 224 230 225 225 221 225 228 223 209 230 232 228 227 223 218 226 207 220 230 222 209 248 270 286 302 294 295 309 303 291 318 345 342 339 344 340 344 342 352 1 349 357 338
191 187 188 190 194 197 197 198 195 199 204 207 210 212 210 207 199 200 208 206 198 203 203 208 206 208 215 216 210 209 200 198 200 201 205 209 213 220 218 211 211 215 215 221 227 223 224 226 232 228 212 220 224 236 231 232 240 243 243 231 235 244 206 222 258 282 299 306 305 305 314 317 312 325 328 321 312 320 329 344 345 352 353 330 336
190 186 188 194 195 194 195 197 197 200 205 209 212 212 212 208 200 205 208 208 200 198 200 201 200 203 211 214 213 212 206 204 202 202 204 208 213 216 216 215 217 218 222 222 222 218 223 229 237 235 226 225 230 232 232 235 231 232 242 237 233 243 235 216 234 268 288 296 301 302 312 311 305 307 313 305 303 323 327 335 329 343 342 325 323
193 189 190 195 196 198 200 198 200 202 206 209 211 210 211 208 202 206 208 212 209 196 195 196 198 200 210 214 214 212 211 207 207 210 208 210 213 217 218 217 217 218 221 223 220 219 222 229 236 231 226 235 237 234 233 226 231 236 240 234 232 239 235 233 239 243 265 282 294 290 293 289 289 291 304 321 319 305 302 307 336 335 332 329 307
197 192 193 196 197 199 198 200 203 203 204 208 210 209 209 208 206 204 208 212 210 206 197 196 197 200 207 210 212 212 210 209 209 212 212 211 213 218 221 221 223 220 220 221 221 222 226 226 229 229 229 233 241 243 237 231 231 236 239 238 236 232 236 238 238 246 258 271 282 294 288 301 306 298 289 304 312 317 312 288 276 292 308 325 339
196 195 196 198 199 200 197 199 201 203 203 206 207 208 209 209 208 207 205 211 213 213 209 203 199 202 202 206 211 212 210 212 211 211 214 214 213 215 223 224 225 225 225 225 223 222 225 228 229 228 228 228 235 238 236 232 232 236 230 232 228 227 237 242 234 243 255 269 276 279 289 286 284 299 282 279 281 270 293 314 309 281 293 307 310
189 195 198 202 201 199 200 199 201 201 202 200 204 207 208 210 209 209 206 208 213 217 216 210 206 205 206 207 210 209 207 210 211 211 212 213 213 215 219 225 227 227 229 228 229 228 225 227 232 232 230 228 230 232 232 236 232 235 231 225 224 228 244 248 245 248 256 265 273 286 289 294 288 276 272 263 276 249 241 295 305 308 304 290 287
190 194 197 201 203 198 196 199 199 199 198 195 199 203 206 206 205 205 205 211 214 218 219 219 213 210 210 209 209 207 209 210 210 209 208 210 214 217 217 220 224 228 231 232 231 232 231 229 231 234 229 226 226 231 237 229 236 242 237 221 223 230 239 247 246 249 253 264 273 269 272 273 275 277 276 274 276 299 303 273 280 281 287 297 292
194 203 203 202 199 193 193 195 198 197 195 199 199 201 204 203 204 205 209 211 213 213 216 217 219 214 210 209 210 211 212 213 206 202 203 207 208 216 216 218 222 226 228 232 234 232 233 235 235 227 219 211 213 218 226 229 228 242 244 228 224 227 233 241 245 243 251 259 264 269 270 271 276 269 273 279 284 273 274 265 277 286 279 287 280
197 202 208 204 194 189 192 197 198 195 199 202 200 202 204 204 206 207 208 208 209 206 207 213 218 222 219 217 214 215 217 218 206 199 204 208 213 214 214 216 215 220 225 226 232 235 235 233 238 224 212 211 216 214 218 220 225 230 238 243 240 232 236 240 243 246 249 256 260 259 259 267 270 277 272 281 283 284 285 284 278 279 281 298 303
224 211 209 199 190 191 196 198 198 201 200 203 203 200 202 202 204 203 202 204 203 207 211 215 218 219 220 220 221 220 222 220 205 201 203 206 210 218 220 222 220 220 224 228 230 232 233 234 232 234 229 227 227 210 209 215 218 223 228 229 232 238 242 243 247 249 243 248 251 253 261 256 265 266 270 275 279 282 275 274 267 272 281 282 286
272 227 214 208 203 196 198 198 199 202 202 201 200 196 198 202 205 206 209 209 208 209 215 215 215 215 219 220 224 224 227 215 204 203 204 204 206 213 228 226 224 224 224 224 228 228 228 230 234 232 236 214 221 231 227 211 209 218 223 224 228 229 231 236 241 247 255 252 252 256 248 253 256 258 260 267 266 268 277 270 263 259 259 268 275
316 257 219 210 207 205 201 201 204 205 203 200 199 199 201 206 210 211 212 207 207 208 212 216 217 215 218 221 224 227 228 216 201 203 204 204 204 204 225 228 229 230 227 226 226 226 225 226 225 228 231 226 221 224 227 231 226 211 212 218 226 222 221 228 235 238 242 250 254 256 254 240 249 256 259 252 250 259 263 270 274 274 264 268 285
2 343 257 217 212 211 207 206 207 205 203 199 200 203 205 208 210 211 211 208 206 207 211 215 216 216 217 220 224 228 229 218 200 202 204 204 202 199 221 228 233 233 229 227 225 225 224 225 227 230 229 224 220 215 223 226 226 228 228 226 226 233 226 221 222 225 225 231 240 248 254 253 253 254 255 247 247 250 256 269 277 279 283 291 276
1 356 358 324 240 222 219 214 211 210 204 203 203 206 207 206 206 207 213 217 217 216 214 217 217 218 220 223 227 232 234 214 202 202 203 204 197 198 215 224 230 234 231 227 224 223 224 226 227 230 231 229 214 203 213 224 229 230 231 233 236 236 233 227 221 221 228 228 231 242 249 254 254 257 263 262 258 260 260 259 262 263 262 258 262
355 355 348 345 343 302 242 226 221 215 210 207 208 209 208 207 207 205 212 218 220 219 218 217 219 222 222 221 224 230 236 215 200 202 201 199 188 207 211 219 226 230 232 228 225 224 224 223 223 228 230 229 217 196 206 209 231 235 235 237 240 241 242 232 205 212 218 228 239 246 255 262 265 263 264 262 255 273 271 266 260 243 238 246 252
353 345 341 344 332 327 318 259 228 218 215 214 213 214 213 212 212 205 212 215 221 223 221 221 221 222 223 224 222 227 233 221 197 200 198 191 191 203 210 214 224 226 231 230 230 230 228 221 223 225 228 230 218 197 197 194 221 230 235 239 241 242 242 241 237 206 210 221 227 237 243 249 255 260 260 255 233 221 234 246 249 245 249 247 252
348 339 336 330 329 325 313 304 255 230 221 220 220 219 214 213 211 207 212 216 223 225 224 227 226 225 226 227 222 226 235 230 198 197 194 190 192 208 210 216 222 225 224 228 228 230 230 219 215 222 227 231 222 200 189 189 217 223 230 237 241 244 243 242 238 237 211 209 224 230 240 237 239 239 241 237 217 207 225 237 249 247 246 251 252
330 331 324 318 324 319 318 310 291 251 231 221 221 219 215 213 212 210 213 216 220 221 222 224 226 228 227 227 227 225 232 237 205 193 191 191 192 202 212 215 223 222 222 224 225 225 227 229 214 213 222 228 227 208 192 194 211 222 225 233 239 241 244 241 238 238 238 234 242 233 238 239 230 223 226 226 203 203 217 224 234 239 241 248 248
328 327 326 329 326 320 314 316 313 285 247 234 224 220 217 219 218 217 218 218 219 221 223 224 226 230 230 230 232 230 230 229 217 186 191 189 194 199 210 216 219 220 221 219 224 228 227 226 234 208 208 219 225 219 201 199 207 221 224 231 232 238 243 249 242 219 237 242 246 247 247 244 243 245 238 226 214 200 206 217 225 229 233 242 249
328 323 331 334 329 320 317 314 311 311 281 246 235 224 223 223 222 220 220 217 217 220 221 223 228 232 233 233 234 234 227 217 228 188 190 191 194 199 210 216 213 218 222 226 226 230 230 229 228 207 197 209 218 221 211 200 207 216 228 230 235 234 237 242 252 250 250 246 245 248 246 244 244 243 241 234 229 219 212 211 211 225 227 237 245
330 325 324 325 323 322 321 317 318 316 314 290 253 240 232 227 226 225 224 225 225 226 225 226 228 233 236 236 236 233 231 220 212 206 189 194 195 200 210 218 209 214 224 227 226 228 228 228 229 206 195 204 212 218 214 207 202 220 228 231 233 234 233 244 249 249 248 253 255 253 250 245 245 244 240 239 237 229 226 224 214 213 223 229 238
326 327 323 321 319 318 316 320 315 312 304 309 308 275 247 237 234 232 230 230 230 232 236 236 237 240 242 244 242 238 231 231 204 207 196 194 197 200 207 217 214 215 221 232 231 230 229 225 224 206 201 205 211 214 214 203 211 218 223 228 233 233 233 238 238 238 244 249 251 252 251 247 245 244 242 240 243 237 232 237 234 224 217 223 224
321 326 325 323 322 321 322 321 317 304 294 304 303 298 283 255 243 235 235 235 234 234 236 235 234 236 237 239 243 243 240 230 230 200 202 193 199 201 205 209 218 217 222 231 235 235 231 225 220 210 209 210 211 213 213 211 216 221 218 222 226 227 224 230 235 235 239 243 247 245 245 237 236 242 246 243 240 245 242 242 237 235 228 216 234
322 326 325 324 323 323 321 324 324 313 304 277 283 293 289 276 257 252 237 236 235 236 234 233 235 236 237 237 238 240 240 239 232 217 191 201 200 203 204 208 214 217 220 229 229 232 234 224 219 217 216 215 210 209 213 212 216 220 221 216 217 222 222 223 225 227 234 238 236 235 234 236 234 237 235 231 236 239 248 252 244 236 218 229 231
322 322 325 323 323 321 323 324 329 322 312 307 286 262 275 274 265 257 250 242 235 232 232 232 235 235 236 237 236 238 238 240 234 224 204 192 199 198 206 216 219 220 222 233 239 241 236 233 227 220 223 211 211 217 221 223 213 211 215 211 216 218 217 217 222 223 226 232 237 236 238 238 239 232 223 222 234 234 230 242 249 245 233 228 227
317 321 322 324 322 324 324 328 329 327 321 322 320 309 295 296 291 269 252 245 245 240 236 236 235 233 234 234 235 235 234 234 226 220 216 205 200 194 191 197 203 201 213 218 219 226 232 228 227 232 225 224 219 225 226 222 219 211 208 205 209 214 219 220 223 230 233 234 241 244 245 236 232 228 232 235 234 231 228 241 239 242 229 230 227
310 311 321 324 322 324 325 326 323 319 314 308 302 291 285 279 278 279 285 294 277 261 252 248 239 240 239 237 229 229 231 227 223 210 213 207 205 205 195 198 198 203 212 210 206 220 225 231 231 219 218 221 223 223 220 215 217 219 218 212 210 209 210 212 218 224 227 230 236 240 238 232 236 231 232 235 242 252 246 237 230 236 230 227 235
307 311 318 322 324 326 324 322 319 313 312 310 307 298 284 267 261 272 280 279 286 291 288 271 261 253 248 244 238 232 226 228 218 199 206 209 210 209 211 202 203 210 212 197 203 216 216 225 224 222 220 220 223 224 223 218 218 219 221 215 216 219 215 213 217 222 217 220 224 226 230 230 233 227 243 246 243 244 234 226 232 227 224 219 230
305 306 315 321 326 322 319 316 316 311 309 312 311 306 302 295 269 253 249 259 264 266 265 262 267 267 257 257 246 232 243 254 219 196 201 210 208 209 211 211 204 212 180 124 197 218 227 223 224 223 222 223 223 223 222 220 218 219 223 217 215 219 219 221 220 217 217 220 224 227 229 227 231 231 243 247 245 241 237 205 228 230 229 227 226
301 303 308 315 318 317 313 313 311 310 313 314 311 305 305 302 299 285 270 270 268 260 256 256 253 246 248 247 250 255 236 228 226 205 208 209 210 209 210 210 210 199 180 173 191 216 223 228 227 224 220 222 224 223 222 222 218 217 220 222 220 216 213 218 213 213 219 222 225 225 224 226 228 230 237 246 243 240 236 222 220 224 226 228 227
297 298 302 307 312 319 323 317 313 314 313 314 310 307 303 301 300 306 304 282 272 274 274 261 246 245 244 248 246 243 252 248 214 216 212 215 210 211 209 207 206 192 152 178 215 221 222 223 228 226 221 224 224 223 224 225 223 220 220 221 222 216 213 213 203 216 222 224 224 227 224 224 226 227 221 230 236 238 235 230 222 224 225 223 221
294 293 296 302 310 319 328 321 314 308 305 300 297 296 297 296 296 297 301 310 313 300 273 247 242 242 243 242 247 250 249 249 249 230 225 222 214 213 205 194 122 167 182 199 205 222 222 225 225 227 227 226 226 225 225 225 224 224 222 222 224 223 217 207 204 213 217 220 223 231 235 241 238 237 243 237 233 235 234 227 223 220 218 217 216
294 293 297 303 304 312 315 308 300 295 295 291 289 287 284 285 286 290 294 297 297 295 300 299 272 206 235 245 240 241 241 238 232 233 233 238 224 156 132 134 153 190 228 236 221 220 224 222 225 221 224 224 222 221 224 224 220 219 222 224 228 227 223 215 215 211 213 220 232 239 240 238 239 235 234 232 233 228 229 226 220 211 212 203 198
295 296 302 306 305 302 301 296 291 289 288 288 288 289 289 289 287 286 285 284 284 285 288 285 291 299 262 247 254 252 249 237 228 226 230 203 162 150 177 199 197 199 203 206 214 219 221 225 223 224 221 224 222 220 219 222 219 219 220 224 227 228 227 225 218 212 212 218 227 234 234 234 233 233 231 233 234 232 226 220 217 212 206 201 202
295 295 298 302 303 301 298 291 282 279 284 289 287 280 279 285 287 288 289 288 283 281 280 289 299 292 284 262 235 244 244 221 203 207 208 196 175 181 213 204 209 207 204 206 208 216 219 224 225 225 223 221 224 221 220 222 222 218 216 219 224 226 226 225 220 209 208 213 217 224 233 235 235 231 229 230 230 230 228 222 212 194 187 193 187
287 289 293 304 305 301 294 285 286 290 287 278 279 292 301 301 297 295 295 292 293 293 287 284 273 276 281 285 152 146 154 151 130 147 179 164 169 209 220 231 227 222 215 210 204 207 215 220 219 222 223 222 224 224 225 227 220 219 216 213 215 223 223 224 220 220 222 222 221 217 230 236 236 233 225 227 229 228 226 217 205 185 190 189 184
283 290 299 302 296 290 288 288 288 287 288 291 294 295 294 297 298 295 292 293 294 290 290 284 274 269 269 276 285 122 116 166 198 204 180 193 199 207 217 221 225 226 228 224 207 203 216 220 222 220 221 220 223 224 224 225 220 217 215 214 217 221 220 224 225 226 234 236 237 236 237 236 238 233 226 224 228 229 227 216 200 182 181 175 195
293 296 296 294 292 289 289 288 286 286 290 295 296 298 296 294 292 291 293 294 291 291 288 285 285 283 281 274 267 255 256 262 255 239 221 188 204 210 219 224 224 228 228 229 231 217 214 223 222 217 216 220 222 225 220 220 220 218 209 215 222 223 222 217 214 218 231 237 237 236 236 238 236 230 226 225 227 226 224 196 175 176 190 191 199
293 296 297 296 289 288 287 287 287 285 289 292 296 296 294 293 292 293 294 292 292 291 287 289 288 287 287 289 272 249 267 268 269 260 250 232 203 204 213 222 228 232 233 232 232 230 221 220 219 220 223 225 226 226 229 229 230 228 226 222 222 229 229 222 216 218 225 232 234 236 235 234 233 229 230 227 212 217 208 171 179 182 190 197 199
297 297 293 290 287 287 288 291 292 297 297 296 296 294 295 295 296 299 296 297 295 294 294 294 294 292 292 288 280 251 244 258 253 255 256 258 257 242 220 217 223 228 232 232 231 233 232 228 227 227 227 226 228 228 224 225 225 229 231 234 236 234 237 234 223 217 223 232 234 236 237 234 231 229 228 209 201 207 205 190 180 181 190 199 196
299 294 292 288 289 286 288 290 297 297 299 302 304 305 305 303 302 300 299 299 296 296 297 296 297 298 299 298 278 256 244 252 258 259 257 250 243 242 245 244 241 231 219 222 231 237 236 235 235 233 229 228 227 226 221 220 222 228 232 233 238 250 253 249 235 225 222 231 237 238 238 236 221 217 224 213 212 204 192 174 174 180 191 200 198
299 294 288 284 285 285 284 287 289 292 295 299 302 304 304 305 303 304 304 303 303 307 305 306 309 313 312 318 305 266 244 247 257 257 255 254 252 248 246 243 246 249 245 232 223 229 241 245 243 234 228 229 232 232 234 232 229 232 234 51 270 240 249 255 249 234 228 235 238 238 233 231 225 223 218 213 208 201 185 175 183 188 192 200 201
295 288 286 286 285 284 286 289 290 293 297 301 301 300 301 304 303 307 309 309 315 316 318 316 317 315 317 319 323 327 314 289 252 243 247 252 256 261 266 264 259 256 254 245 235 231 242 243 241 235 230 235 235 238 239 238 209 135 171 206 215 222 227 236 245 242 231 236 233 227 227 228 219 219 220 214 207 199 182 183 193 195 193 194 191
298 292 289 288 291 291 297 299 303 307 307 309 309 309 310 311 311 313 317 322 324 323 322 324 322 320 322 326 330 334 344 355 354 355 356 7 13 9 1 355 356 359 360 357 356 354 352 333 282 258 253 254 254 251 237 226 193 217 224 227 231 236 238 232 228 222 219 223 227 226 223 221 220 218 214 211 199 196 189 188 194 197 198 195 195
299 291 293 292 294 297 303 310 313 315 320 321 323 321 320 322 322 321 324 328 330 331 332 329 328 329 332 337 344 355 2 6 4 4 7 9 12 17 17 12 10 13 11 11 7 3 351 340 326 313 302 299 300 302 335 167 201 218 236 240 239 237 240 232 214 199 209 217 222 227 216 215 217 217 203 199 195 191 189 191 191 194 199 195 191
299 299 298 299 299 304 311 320 322 326 329 327 329 327 325 328 328 328 329 331 334 338 339 338 336 336 338 345 351 357 3 11 21 23 20 20 19 20 23 26 28 27 28 24 19 8 360 346 342 339 334 321 318 328 111 178 169 198 230 248 226 219 207 204 209 199 201 196 198 199 193 208 210 210 203 194 187 187 192 195 190 184 190 191 180
308 307 305 306 306 315 321 327 330 333 331 331 332 332 331 332 331 332 333 334 335 343 345 344 344 344 346 353 4 7 10 19 28 37 37 34 32 31 34 37 41 41 39 35 30 22 13 3 358 350 348 347 350 2 21 191 185 186 203 231 224 206 190 189 180 179 174 179 189 194 189 194 192 181 169 175 181 187 191 188 167 158 158 159 161
314 313 311 316 318 322 326 331 335 334 336 335 337 335 334 335 336 339 338 339 343 348 351 351 351 351 352 358 8 15 21 26 31 37 41 45 44 46 44 42 41 40 38 34 30 24 19 17 15 13 9 7 5 359 359 359 322 283 276 247 206 182 176 181 181 178 177 187 183 180 166 159 147 154 160 165 168 161 154 140 140 150 155 155 162
321 322 321 320 324 330 336 341 343 344 341 341 344 342 338 339 340 339 342 346 350 356 1 0 355 355 1 3 11 19 28 34 39 42 44 45 45 48 49 47 45 43 38 33 28 25 22 21 17 18 19 20 18 11 4 359 352 345 339 13 137 180 155 166 169 175 167 154 146 146 141 141 137 124 114 107 103 103 119 121 117 111 108 117 122